GAOFEN 2

导读 | 星芒AI

高分二号(GAOFEN 2)是中国高分辨率对地观测系统的重要组成部分,于2014年8月发射。该卫星具备亚米级光学遥感能力,地面像元分辨率为0.8米,可广泛应用于土地调查、城市规划、灾害监测等领域。GAOFEN 2搭载了高性能 CCD 推扫成像仪,具备多光谱和全色成像能力,提升了中国自主高分辨率遥感数据获取水平,对国家资源管理和应急响应具有重要意义。

基本信息
目录编号:
40118
目录名称:
GAOFEN 2
国际标识:
2014-049A
轨道中心:
EARTH
卫星名称:
GAOFEN 2
卫星全名:
--
卫星状态:
在轨 (已飞行4136 天)
发射日期:
2014-08-19 UTC
国别 :
中国 (CN)
星等 :
--
轨道信息
数据来源 国际轨道数据 AOE轨道数据
星历时间 2025-12-15T07:18:56+0800
19小时前
查看轨道信息
2025-12-14T12:00:00+0800
1天前
查看轨道信息
半长轴 7005.525km 7005.548km
偏心率 0.0008647 0.000902
轨道倾角 98.039° 98.040°
近地点辐角 106.565° 103.562°
升交点赤经 48.144° 47.337°
平近点角 253.651° 289.397°
近地点 621.332km 621.093km
远地点 633.448km 633.733km
周期 97.257分钟 97.257分钟
每日圈数 14.806136 14.806065
详细信息
使用方式:
暂无
2D轨道图
3D轨道图
轨道高度分析图
轨道倾角分析图
轨道综合分析图
查看轨道综合分析图